Location: Brede
(50.9167°N, 0.6000°E)
Time: 17:26:28
(UTC+00:00)

Tiros 1 despin weight - Pass Details

Date: 30 November 2020
Orbit: 594 x 641 km, 48.2° (Epoch: 15 January)

Event Time Altitude Azimuth Distance (km) Brightness Sun altitude
Rises 16:29:53 0° 279° (W) 2,946 ? -5.5°
Reaches altitude 10° 16:32:23 10° 270° (W) 2,033 ? -5.9°
Maximum altitude 16:36:34 33° 207° (SSW) 1,081 ? -6.4°
Drops below altitude 10° 16:40:42 10° 144° (SE) 2,012 ? -7.0°
Sets 16:43:11 0° 134° (SE) 2,911 ? -7.4°
